Weather History for KSUA - December, 2012

Change the Weather History Date:

Thursday, December 13, 2012

  Actual Average Record
Temperature  
Mean Temperature 68 °F -  
Max Temperature 73 °F 75 °F 86 °F (1948)
Min Temperature 64 °F 57 °F 26 °F (1962)
Cooling Degree Days 4    
Growing Degree Days 18 (Base 50)    
Moisture  
Dew Point 67 °F    
Average Humidity 90    
Maximum Humidity 100    
Minimum Humidity 78    
Precipitation  
Precipitation 0.00 in - - ()
Sea Level Pressure  
Sea Level Pressure 30.09 in    
Wind  
Wind Speed 5 mph (NW)    
Max Wind Speed 14 mph    
Max Gust Speed 29 mph    
Visibility 9 miles    
Events Rain    
Averages and records for this station are not official NWS values.
T = Trace of Precipitation, MM = Missing Value Source: NWS Daily Summary

Daily Weather History Graph

Daily Weather History Graph

Search for Another Location

Airport or City:

Trip Planner

Search our weather history database for the weather conditions in past years. The results will help you decide how hot, cold, wet, or windy it might be!

Date:

Astronomy

Dec. 13, 2012 Rise Set
Actual Time 7:01 AM EST 5:28 PM EST
Civil Twilight 6:36 AM EST 5:54 PM EST
Nautical Twilight 6:07 AM EST 6:23 PM EST
Astronomical Twilight 5:38 AM EST 6:51 PM EST
Moon 7:10 AM EST (12/13) 6:07 PM EST (12/13)
Length of Visible Light 11h 17m
Length of Day
10h 26m
New Moon, 0% of the Moon is Illuminated
Dec 13
New Moon
Dec 20
First Quarter
Dec 28
Full
Jan 4
Last Quarter
Jan 11
New

Hourly Weather History & Observations

Time (EST) Temp. Dew Point Humidity Pressure Visibility Wind Dir Wind Speed Gust Speed Precip Events Conditions
12:15 AM 73.4 °F 69.8 °F 88% 30.07 in 10.0 mi Calm Calm - N/A   Mostly Cloudy
12:35 AM 73.4 °F 69.8 °F 88% 30.06 in 10.0 mi SW 3.5 mph - N/A   Scattered Clouds
12:55 AM 73.4 °F 71.6 °F 94% 30.06 in 10.0 mi Calm Calm - N/A   Mostly Cloudy
1:15 AM 73.4 °F 71.6 °F 94% 30.06 in 10.0 mi WSW 3.5 mph - N/A   Mostly Cloudy
1:35 AM 73.4 °F 71.6 °F 94% 30.06 in 10.0 mi West 4.6 mph - N/A   Mostly Cloudy
1:55 AM 73.4 °F 71.6 °F 94% 30.05 in 10.0 mi SW 3.5 mph - N/A   Mostly Cloudy
2:15 AM 71.6 °F 69.8 °F 94% 30.05 in 10.0 mi WSW 3.5 mph - N/A   Scattered Clouds
2:35 AM 71.6 °F 69.8 °F 94% 30.05 in 10.0 mi WSW 3.5 mph - N/A   Mostly Cloudy
2:55 AM 71.6 °F 69.8 °F 94% 30.05 in 10.0 mi SW 3.5 mph - N/A   Scattered Clouds
3:15 AM 71.6 °F 69.8 °F 94% 30.04 in 10.0 mi SW 4.6 mph - N/A   Mostly Cloudy
3:35 AM 73.4 °F 71.6 °F 94% 30.04 in 10.0 mi SW 4.6 mph - N/A   Overcast
3:55 AM 71.6 °F 69.8 °F 94% 30.04 in 10.0 mi WSW 3.5 mph - N/A   Mostly Cloudy
4:15 AM 71.6 °F 69.8 °F 94% 30.04 in 10.0 mi WSW 5.8 mph - N/A   Mostly Cloudy
4:35 AM 71.6 °F 69.8 °F 94% 30.04 in 10.0 mi WSW 3.5 mph - N/A   Mostly Cloudy
4:55 AM 71.6 °F 69.8 °F 94% 30.04 in 7.0 mi WSW 3.5 mph - N/A   Mostly Cloudy
5:15 AM 71.6 °F 71.6 °F 100% 30.05 in 7.0 mi West 4.6 mph - N/A   Overcast
7:25 AM 73.4 °F 71.6 °F 94% 30.08 in 5.0 mi NW 5.8 mph - N/A   Overcast
7:50 AM 73.4 °F 71.6 °F 94% 30.09 in 5.0 mi North 9.2 mph - N/A   Overcast
8:47 AM 71.6 °F 68.0 °F 88% 30.11 in 5.0 mi North 9.2 mph - N/A   Overcast
11:47 AM 71.6 °F 66.2 °F 83% 30.13 in 7.0 mi North 11.5 mph 19.6 mph N/A   Overcast
12:47 PM 71.6 °F 64.4 °F 78% 30.11 in 7.0 mi NNW 13.8 mph 18.4 mph N/A   Overcast
1:47 PM 71.6 °F 64.4 °F 78% 30.10 in 7.0 mi North 10.4 mph 20.7 mph N/A   Overcast
2:47 PM 69.8 °F 64.4 °F 83% 30.11 in 7.0 mi North 13.8 mph 28.8 mph N/A   Overcast
3:47 PM 69.8 °F 64.4 °F 83% 30.11 in 7.0 mi North 11.5 mph 20.7 mph N/A   Overcast
4:55 PM 68.0 °F 64.4 °F 88% 30.10 in 7.0 mi NNW 11.5 mph 18.4 mph N/A   Overcast
5:47 PM 68.0 °F 64.4 °F 88% 30.11 in 7.0 mi NNW 11.5 mph 18.4 mph N/A   Overcast
6:47 PM 68.0 °F 64.4 °F 88% 30.11 in 7.0 mi NNW 9.2 mph 18.4 mph N/A   Mostly Cloudy
7:15 PM 69.8 °F 64.4 °F 83% 30.12 in 10.0 mi North 9.2 mph - N/A   Mostly Cloudy
8:15 PM 69.8 °F 64.4 °F 83% 30.12 in 10.0 mi NNW 6.9 mph - N/A   Mostly Cloudy
8:35 PM 69.8 °F 64.4 °F 83% 30.13 in 10.0 mi North 5.8 mph - N/A   Overcast
8:55 PM 69.8 °F 64.4 °F 83% 30.13 in 10.0 mi North 11.5 mph - N/A   Overcast
9:15 PM 68.0 °F 64.4 °F 88% 30.13 in 10.0 mi North 11.5 mph 16.1 mph N/A   Mostly Cloudy
9:35 PM 68.0 °F 64.4 °F 88% 30.13 in 10.0 mi NNW 8.1 mph - N/A   Scattered Clouds
9:55 PM 66.2 °F 64.4 °F 94% 30.14 in 7.0 mi NNW 10.4 mph - N/A   Mostly Cloudy
10:15 PM 66.2 °F 62.6 °F 88% 30.13 in 10.0 mi NNW 10.4 mph 17.3 mph N/A   Scattered Clouds
10:35 PM 64.4 °F 62.6 °F 94% 30.13 in 10.0 mi NNW 9.2 mph - N/A   Scattered Clouds
10:55 PM 64.4 °F 62.6 °F 94% 30.13 in 10.0 mi NNW 6.9 mph - N/A   Scattered Clouds
11:15 PM 64.4 °F 62.6 °F 94% 30.13 in 7.0 mi NNW 9.2 mph - N/A Rain Light Rain
11:35 PM 64.4 °F 62.6 °F 94% 30.13 in 10.0 mi NNW 6.9 mph - N/A Rain Rain
11:55 PM 64.4 °F 62.6 °F 94% 30.12 in 10.0 mi NNW 10.4 mph 16.1 mph N/A   Mostly Cloudy